Location: Newark
(42.8481°N, 0.4872°E)
Time: 00:16:25
(UTC+00:00)

Transit 2A - Pass Details

Date: 03 November 2020
Orbit: 595 x 963 km, 66.7° (Epoch: 03 December)

Event Time Altitude Azimuth Distance (km) Brightness Sun altitude
Rises 23:16:02 0° 206° (SSW) 3,613 - -62.0°
Reaches altitude 10° 23:18:34 10° 206° (SSW) 2,685 - -62.1°
Maximum altitude 23:24:56 84° 119° (ESE) 969 - -62.4°
Drops below altitude 10° 23:31:13 10° 32° (NNE) 2,647 - -62.5°
Sets 23:33:42 0° 32° (NNE) 3,559 - -62.5°
